Richmond International Airport
KRIC : now visible

Airfield :











YOU CAN JOIN US ON...

 
LOGIN :

Register | Disclaimer

   EN    FR    IT 

 









Legend :    VFR   Marginal VFR   IFR   Intensive IFR   Very Intensive IFR
Visi :
Ceiling :
>= 8 km
>= 3000ft
5 to 8 km
1000 to 3000 ft
1500m to 5 km
500 to 1000 ft
800 to 1500m
200 to 500 ft
< 800m
< 200 ft
Symbols :   Thunderstorms  Fog  Heavy snow  Heavy precipitations  Wind > 20 kt






- Airport Elevation : 167 ft
- IATA code : RIC


KRIC - Richmond International

CURRENT METAR :
  • 220154Z 01007KT 10SM OVC065 M04/M11 A3046 RMK AO2 SLP321 T10391111

EXPIRED METARs :
  • 220054Z 01008KT 10SM OVC070 M04/M12 A3046 RMK AO2 SLP323 T10391122
  • 212354Z 02010KT 10SM OVC050 M04/M12 A3046 RMK AO2 SLP324 T10441117 11028 21044 51007

TAF KRIC
Valid from the 22 at 00:00 until the 23 at 00:00 UTC


212340Z 2200/2224 02011KT P6SM OVC050
FM220400 01010KT 5SM -SHSN BKN025 OVC050
FM220800 35010KT P6SM BKN050
FM221300 36009KT P6SM SCT050
FM221800 VRB03KT P6SM SCT250
KZDC FIR / North America



MET'MAP, your aeronautical weather chart ! - Copyright ORBIFLY December 2007 - Disclaimer

ORBIFLY MET'MAP TEAM :

Programming & Development : Alexandra Zaïnal
Concept & original design : Baudouin d'Aumeries
Assistance for programming : Marc-Olivier Méhu
Technical & hardware support : Manuel Goepfert

Contact : metmap@orbifly.com




SOURCES & CREDITS :

   NOAA       Earth
Advisory